Location: Unspecified
(0.0000°N, 0.0000°E)
Time: 09:13:03
(UTC+00:00)

S-56A Canister/Altair - Pass Details

Date: 14 December 2018
Orbit: 633 x 2500 km, 38.9° (Epoch: 17 January)

Event Time Altitude Azimuth Distance (km) Brightness Sun altitude
Rises 22:57:11 0° 220° (SW) 3,037 - -62.9°
Reaches altitude 10° 22:59:19 10° 215° (SW) 2,220 - -63.1°
Maximum altitude 23:04:17 57° 136° (SE) 1,033 - -63.7°
Drops below altitude 10° 23:11:20 10° 59° (ENE) 3,114 - -64.5°
Sets 23:14:49 0° 55° (NE) 4,386 - -64.8°
